This demonstration page uses our WeatherBlox Daily Observations layout. Learn more.

Left ArrowRight Arrow

39.51506, -84.39828

Hourly Observations for July 5, 2015

Temp ( °F °C ) Dew Point ( °F °C ) Humidity (%) Winds ( mph kmh ) Pressure ( in mb ) Visibility ( mi km ) Precip ( " mm )
12:15 am 00:15 Clear with Mist and Fog 67 19.5 63 17 86 86 N N/A 30.03 1017 5 8 N/A
12:35 am 00:35 Clear with Mist and Fog 64 18 60 15.8 87 87 N N/A 30.06 1018 4 6 N/A
12:55 am 00:55 Clear with Mist and Fog 64 18 61 16 88 88 N N/A 30.06 1018 4 6 N/A
1:15 am 01:15 Clear with Mist and Fog 64 18 60 15.7 87 87 N N/A 30.06 1018 5 8 N/A
1:35 am 01:35 Clear with Mist and Fog 64 18 60 15.5 85 85 N N/A 30.06 1018 5 8 N/A
1:55 am 01:55 Clear with Mist and Fog 63 17.1 59 14.9 87 87 N N/A 30.06 1018 4 6 N/A
2:15 am 02:15 Clear with Mist and Fog 63 17.2 59 15 87 87 N N/A 30.06 1018 4 6 N/A
2:35 am 02:35 Clear with Mist and Fog 62 16.8 58 14.5 86 86 N 3 6 30.06 1018 4 6 N/A
2:55 am 02:55 Clear with Mist and Fog 63 17 59 14.8 87 87 N N/A 30.06 1018 4 6 N/A
3:15 am 03:15 Clear with Mist and Fog 62 16.8 58 14.6 87 87 N N/A 30.06 1018 4 6 N/A
3:35 am 03:35 Clear with Mist and Fog 62 16.6 58 14.5 88 88 N N/A 30.03 1017 4 6 N/A
3:55 am 03:55 Clear with Mist and Fog 62 16.6 58 14.5 88 88 N N/A 30.06 1018 4 6 N/A
4:15 am 04:15 Clear with Mist and Fog 62 16.6 58 14.5 88 88 N N/A 30.06 1018 4 6 N/A
4:35 am 04:35 Clear with Mist and Fog 61 16 57 14 88 88 N N/A 30.09 1019 3 5 N/A
4:55 am 04:55 Clear with Mist and Fog 61 16 57 14 88 88 N N/A 30.09 1019 3 5 N/A
5:15 am 05:15 Clear with Mist and Fog 61 16 57 14.1 89 89 N N/A 30.09 1019 4 6 N/A
5:35 am 05:35 Clear with Mist and Fog 61 16 57 14 88 88 NNE 3 6 30.09 1019 4 6 N/A
5:55 am 05:55 Clear with Mist and Fog 61 16 57 14 88 88 N N/A 30.09 1019 5 8 N/A
6:15 am 06:15 Clear with Mist and Fog 61 16 57 14 88 88 N N/A 30.12 1020 5 8 N/A
6:35 am 06:35 Sunny with Mist and Fog 61 16 57 13.8 87 87 NNE 3 6 30.12 1020 5 8 N/A
6:55 am 06:55 Sunny with Mist and Fog 61 16.1 57 14 87 87 NNE 3 6 30.12 1020 4 6 N/A
7:15 am 07:15 Sunny with Mist and Fog 62 16.6 58 14.5 88 88 N N/A 30.12 1020 4 6 N/A
7:35 am 07:35 Sunny with Mist and Fog 63 17 58 14.7 86 86 N N/A 30.12 1020 3 5 N/A
7:55 am 07:55 Sunny with Mist and Fog 63 17.4 60 15.3 88 88 N N/A 30.12 1020 3 5 N/A
8:15 am 08:15 undefined 64 18 60 15.7 87 87 N N/A 30.12 1020 N/A N/A
8:35 am 08:35 undefined N/A N/A N/A undefined N/A N/A N/A N/A
8:55 am 08:55 undefined N/A N/A N/A N N/A N/A N/A N/A
9:15 am 09:15 undefined N/A N/A N/A undefined N/A N/A N/A N/A
9:35 am 09:35 undefined N/A N/A N/A undefined N/A N/A N/A N/A
9:55 am 09:55 undefined N/A N/A N/A undefined N/A N/A N/A N/A
10:15 am 10:15 undefined N/A N/A N/A undefined N/A N/A N/A N/A
10:35 am 10:35 undefined N/A N/A N/A undefined N/A N/A N/A N/A
10:55 am 10:55 undefined N/A N/A N/A undefined N/A N/A N/A N/A
11:15 am 11:15 undefined N/A N/A N/A undefined N/A N/A N/A N/A
11:35 am 11:35 undefined 77 25.1 63 17 61 61 NE 5 7 30.09 1019 10 16 N/A
11:55 am 11:55 Sunny 80 26.5 62 16.4 54 54 NE 3 6 30.09 1019 10 16 N/A
12:15 pm 12:15 Sunny N/A N/A N/A ENE 7 11 N/A N/A N/A
12:35 pm 12:35 Sunny 77 25.1 58 14.3 51 51 ENE 5 7 30.09 1019 10 16 N/A
12:55 pm 12:55 Sunny 77 25.2 57 13.8 49 49 E 6 9 30.09 1019 10 16 N/A
1:15 pm 13:15 undefined N/A N/A N/A undefined N/A N/A N/A N/A
1:35 pm 13:35 undefined N/A N/A N/A undefined N/A N/A N/A N/A
1:55 pm 13:55 undefined N/A N/A N/A undefined N/A N/A N/A N/A
2:15 pm 14:15 undefined N/A N/A N/A undefined N/A N/A N/A N/A
2:35 pm 14:35 undefined N/A N/A N/A undefined N/A N/A N/A N/A
2:55 pm 14:55 undefined N/A N/A N/A undefined N/A N/A N/A N/A
3:15 pm 15:15 undefined N/A N/A N/A undefined N/A N/A N/A N/A
3:35 pm 15:35 undefined N/A N/A N/A undefined N/A N/A N/A N/A
3:55 pm 15:55 undefined N/A N/A N/A undefined N/A N/A N/A N/A
4:15 pm 16:15 undefined N/A N/A N/A undefined N/A N/A N/A N/A
4:35 pm 16:35 undefined N/A N/A N/A undefined N/A N/A N/A N/A
4:55 pm 16:55 undefined N/A N/A N/A undefined N/A N/A N/A N/A
5:15 pm 17:15 undefined N/A N/A N/A undefined N/A N/A N/A N/A
5:35 pm 17:35 undefined N/A N/A N/A undefined N/A N/A N/A N/A
5:55 pm 17:55 undefined N/A N/A N/A undefined N/A N/A N/A N/A
6:15 pm 18:15 undefined N/A N/A N/A undefined N/A N/A N/A N/A
6:35 pm 18:35 undefined N/A N/A N/A undefined N/A N/A N/A N/A
6:55 pm 18:55 undefined N/A N/A N/A undefined N/A N/A N/A N/A
7:15 pm 19:15 undefined N/A N/A N/A undefined N/A N/A N/A N/A
7:35 pm 19:35 undefined N/A N/A N/A undefined N/A N/A N/A N/A
7:55 pm 19:55 undefined N/A N/A N/A undefined N/A N/A N/A N/A
8:15 pm 20:15 undefined N/A N/A N/A undefined N/A N/A N/A N/A
8:35 pm 20:35 undefined N/A N/A N/A undefined N/A N/A N/A N/A
8:55 pm 20:55 undefined N/A N/A N/A undefined N/A N/A N/A N/A
9:15 pm 21:15 undefined N/A N/A N/A undefined N/A N/A N/A N/A
9:35 pm 21:35 undefined N/A N/A N/A undefined N/A N/A N/A N/A
9:55 pm 21:55 undefined N/A N/A N/A undefined N/A N/A N/A N/A
10:15 pm 22:15 undefined N/A N/A N/A undefined N/A N/A N/A N/A
10:35 pm 22:35 undefined N/A N/A N/A undefined N/A N/A N/A N/A
10:55 pm 22:55 undefined N/A N/A N/A undefined N/A N/A N/A N/A
11:15 pm 23:15 undefined N/A N/A N/A undefined N/A N/A N/A N/A
11:35 pm 23:35 undefined N/A N/A N/A undefined N/A N/A N/A N/A
11:55 pm 23:55 undefined N/A N/A N/A undefined N/A N/A N/A N/A

Powered by AerisWeather